User: anonymous   Login
Location: ČR
(50.0000°N, 15.0000°E)
Time: 23:23:25
(UTC+01:00)
Language:

SR - Orbit

View from above orbital plane
View from above orbital plane
View from above satellite
View from above satellite

Ground track
Ground track

The orbit is defined by the following mean orbital elements,

1 00046U          26073.59052954 +.00000000 +00000-0 +18621-3 0 00001
2 00046  66.6871 126.1244 0195173   2.2202 357.9728 14.54696601    03
Epoch (UTC): 14 March 2026 14:10:21
Eccentricity: 0.0195173
inclination: 66.6871°
perigee height: 572 km
apogee height: 849 km
right ascension of ascending node: 126.1244°
argument of perigee: 2.2202°
revolutions per day: 14.54696601
mean anomaly at epoch: 357.9728°

The dashed part of the orbit path shows where the satellite is in the earth's shadow,  

DLR